#timestamp,LO_Frequency,Hit,StdDev 
1526353215.5,286047002.7,N
1526353235.3,286047004.4,Y
1526353255.1,286047001.6,P
1526353275.9,286047001.7,N
1526353295.7,286047002.3,N
1526353315.5,286047004.1,Y
1526353335.4,286047004.6,P
1526353355.2,286047006.3,P
1526353375.1,286047004.8,N
1526353376.0,286047004.8,N
1526353395.8,286047003.0,N
1526353415.6,286047005.7,Y
1526353435.5,286047002.0,P
1526353455.3,286047003.7,P
1526353475.2,286047003.1,P
1526353495.9,286047001.7,N
1526353515.7,286047002.1,N
1526353535.6,286047005.8,Y
1526353555.4,286047000.0,P
1526353575.2,286046998.1,N
1526353595.1,286047000.2,N
1526353596.0,286047000.2,N
1526353615.8,286046996.5,N
1526353635.7,286046999.7,N
1526353655.5,286047000.4,N
1526353675.3,286046998.9,N
1526353695.2,286046996.7,N
1526353715.0,286046996.5,N
1526353715.9,286046996.5,N
1526353735.7,286046998.7,N
1526353755.6,286046998.5,N
1526353775.4,286046996.8,N
1526353795.3,286046996.8,N
1526353815.1,286046997.1,N
1526353816.0,286046997.1,N
1526353835.8,286046996.7,N
1526353855.7,286046999.5,N
1526353875.5,286046997.0,N
1526353895.4,286046997.0,N
1526353915.2,286046999.3,N
1526353935.0,286046996.5,N
1526353935.9,286046996.5,N
1526353955.8,286046996.6,N
1526353975.6,286046999.5,N
1526353995.4,286046998.3,N
1526354015.3,286046996.9,N
1526354035.1,286046999.4,N
1526354055.9,286046998.7,N
1526354075.7,286046999.6,N
1526354095.5,286046999.0,N
1526354115.4,286046999.6,N
1526354135.2,286046996.9,N
1526354155.0,286046996.7,N
1526354155.9,286046996.7,N
1526354175.8,286046994.9,Y
1526354195.6,286046998.2,P
1526354215.5,286046998.4,P
1526354235.3,286047000.8,P
1526354255.1,286046998.7,N
1526354275.9,286046996.5,Y
1526354295.7,286046998.6,P
1526354315.5,286047000.3,N
1526354335.4,286047001.6,N
1526354355.2,286047000.6,N
1526354375.1,286047002.6,N
1526354376.0,286047002.6,N
1526354395.8,286046999.9,N
1526354415.6,286047000.5,N
1526354435.5,286047002.3,N
1526354455.3,286046998.5,N
1526354475.1,286046998.3,N
1526354495.9,286046998.7,N
1526354515.7,286046999.0,N
1526354535.6,286046999.1,N
1526354555.4,286046997.1,N
1526354575.2,286046997.1,N
1526354595.1,286046998.9,N
1526354596.0,286046998.9,N
1526354615.8,286046998.2,N
1526354635.7,286047000.7,N
1526354655.5,286047000.7,N
1526354675.3,286046999.3,N
1526354695.2,286047001.0,N
1526354715.9,286046998.7,N
1526354735.7,286047002.6,N
1526354755.6,286046999.8,N
1526354775.4,286046998.3,N
1526354795.3,286046996.9,N
1526354815.1,286046998.7,N
1526354816.0,286046998.7,N
1526354835.8,286047000.9,N
1526354855.7,286047002.2,N
1526354875.5,286047001.0,N
1526354895.3,286046998.4,N
1526354915.2,286046999.2,N
1526354935.0,286046997.0,N
1526354935.9,286046997.0,N
1526354955.8,286046999.6,N
1526354975.6,286046996.6,N
1526354995.4,286046995.3,Y
1526355015.3,286046999.6,P
1526355035.1,286046998.1,P
1526355055.9,286046999.3,N
1526355075.7,286046999.6,N
1526355095.5,286046998.5,N
1526355115.4,286046997.4,Y
1526355135.2,286046999.0,P
1526355155.0,286046998.3,P
1526355155.9,286046998.3,P
1526355175.8,286047001.1,Y
1526355195.6,286047002.6,P
1526355215.5,286047000.1,N
1526355235.3,286047002.1,N
1526355255.1,286047000.0,N
1526355275.9,286047002.5,N
1526355295.7,286047001.3,N
1526355315.6,286047002.2,N
1526355335.4,286047000.8,N
1526355355.2,286047000.1,N
1526355375.1,286046999.9,N
1526355376.0,286046999.9,N
1526355395.8,286047002.4,N
1526355415.6,286047001.9,N
1526355435.5,286047002.3,N
1526355455.3,286046999.7,N
1526355475.2,286047002.8,N
1526355495.9,286047001.7,N
1526355515.7,286047001.8,N
1526355535.6,286047002.3,N
1526355555.4,286047002.3,N
1526355575.3,286047000.1,N
1526355595.1,286047000.1,N
1526355596.0,286047000.1,N
1526355615.8,286047001.4,N
1526355635.7,286047001.1,N
1526355655.5,286047000.6,N
1526355675.3,286046998.5,N
1526355695.2,286047001.2,N
1526355715.0,286046998.3,N
1526355715.9,286046998.3,N
1526355735.8,286046998.6,N
1526355755.6,286047000.0,N
1526355775.4,286046999.5,N
1526355795.3,286046999.0,N
1526355815.1,286046998.6,N
1526355835.8,286047001.1,N
1526355855.7,286046998.8,N
1526355875.5,286047000.5,N
1526355895.4,286047002.4,N
1526355915.2,286047000.3,N
1526355935.0,286046999.5,N
1526355935.9,286046999.5,N
1526355955.8,286046997.1,N
1526355975.6,286046996.5,N
1526355995.5,286046999.2,N
1526356015.3,286046996.5,N
1526356035.1,286046997.1,N
1526356055.9,286046996.7,N
1526356075.7,286046996.9,N
1526356095.5,286046996.8,N
1526356115.4,286046997.2,N
1526356135.2,286046995.4,N
1526356155.1,286046995.7,N
1526356156.0,286046995.7,N
1526356175.8,286046995.3,N
1526356195.6,286046996.9,N
1526356215.5,286046997.5,N
1526356235.3,286046994.4,Y
1526356255.2,286046995.9,P
1526356275.9,286046996.1,P
1526356295.7,286046999.5,N
1526356315.6,286046999.9,N
1526356335.4,286047000.0,N
1526356355.2,286046998.9,N
1526356375.1,286047001.1,N
1526356376.0,286047001.1,N
1526356395.8,286046998.1,N
1526356415.7,286046999.0,N
1526356435.5,286046997.4,N
1526356455.3,286046997.4,N
1526356475.2,286046998.5,N
1526356495.0,286046999.2,N
1526356495.9,286046999.2,N
1526356515.7,286046999.2,N
1526356535.6,286046999.5,N
1526356555.4,286047000.6,N
1526356575.3,286046999.8,N
1526356595.1,286047000.1,N
1526356615.8,286047002.8,N
1526356635.7,286046998.2,N
1526356655.5,286046998.4,N
1526356675.4,286047000.1,N
1526356695.2,286047002.7,N
1526356715.0,286047000.2,N
1526356715.9,286047000.2,N
1526356735.8,286046999.7,N
1526356755.6,286047002.7,N
1526356775.4,286047002.2,N
1526356795.3,286047001.3,N
